Weather History for Naples, FL

Change the Weather History Date:

Wednesday, January 9, 2013

  Actual Average Record
Temperature  
Mean Temperature 79 °F 64 °F  
Max Temperature 86 °F 75 °F 87 °F (1974)
Min Temperature 71 °F 54 °F 32 °F (1996)
Degree Days  
Heating Degree Days 0 4  
Month to date heating degree days 0 30  
Since 1 July heating degree days 49 108  
Cooling Degree Days 14 3  
Month to date cooling degree days 80 27  
Year to date cooling degree days 80 27  
Growing Degree Days 26 (Base 50)    
Moisture  
Dew Point 69 °F    
Average Humidity 78    
Maximum Humidity 100    
Minimum Humidity 55    
Precipitation  
Precipitation T in 0.05 in 1.97 in (1993)
Month to date precipitation 0.11 0.50  
Year to date precipitation 0.11 0.50  
Snow  
Snow 0.00 in - - ()
Month to date snowfall 0.0  
Since 1 July snowfall 0.0  
Snow Depth 0.00 in    
Sea Level Pressure  
Sea Level Pressure 30.20 in    
Wind  
Wind Speed 9 mph (East)    
Max Wind Speed 20 mph    
Max Gust Speed 24 mph    
Visibility 9 miles    
Events Rain    
T = Trace of Precipitation, MM = Missing Value Source: NWS Daily Summary

Daily Weather History Graph

Daily Weather History Graph

Search for Another Location

Airport:

Trip Planner

Search our weather history database for the weather conditions in past years. The results will help you decide how hot, cold, wet, or windy it might be!

Date:

Astronomy

Jan. 09, 2013 Rise Set
Actual Time 7:16 AM EST 5:52 PM EST
Civil Twilight 6:51 AM EST 6:17 PM EST
Nautical Twilight 6:22 AM EST 6:46 PM EST
Astronomical Twilight 5:54 AM EST 7:14 PM EST
Moon 4:53 AM EST (1/9) 3:53 PM EST (1/9)
Length of Visible Light 11h 26m
Length of Day
10h 36m
Waning Crescent, 6% of the Moon is Illuminated
Jan 9
Waning Crescent
Jan 11
New
Jan 18
First Quarter
Jan 26
Full
Feb 3
Last Quarter

Hourly Weather History & Observations

Time (EST) Temp. Heat Index Dew Point Humidity Pressure Visibility Wind Dir Wind Speed Gust Speed Precip Events Conditions
12:53 AM 72.0 °F - 71.1 °F 97% 30.15 in 7.0 mi East 6.9 mph - N/A   Clear
1:53 AM 72.0 °F - 71.1 °F 97% 30.16 in 6.0 mi Calm Calm - N/A   Mostly Cloudy
2:53 AM 71.1 °F - 71.1 °F 100% 30.16 in 6.0 mi NE 5.8 mph - N/A   Overcast
3:53 AM 71.1 °F - 71.1 °F 100% 30.16 in 7.0 mi ENE 6.9 mph - N/A   Overcast
4:53 AM 71.1 °F - 70.0 °F 96% 30.16 in 7.0 mi East 4.6 mph - N/A   Partly Cloudy
5:53 AM 71.1 °F - 70.0 °F 96% 30.17 in 7.0 mi East 6.9 mph - N/A   Partly Cloudy
6:53 AM 71.1 °F - 70.0 °F 96% 30.18 in 8.0 mi East 6.9 mph - N/A   Clear
7:53 AM 71.1 °F - 71.1 °F 100% 30.20 in 6.0 mi East 6.9 mph - N/A   Clear
8:53 AM 75.0 °F - 71.1 °F 87% 30.23 in 8.0 mi ESE 12.7 mph 18.4 mph N/A   Clear
9:53 AM 78.1 °F - 70.0 °F 76% 30.24 in 9.0 mi ESE 13.8 mph - N/A   Partly Cloudy
10:53 AM 82.0 °F 85.9 °F 70.0 °F 67% 30.23 in 10.0 mi SE 11.5 mph 24.2 mph N/A   Scattered Clouds
11:53 AM 82.0 °F 84.5 °F 66.9 °F 60% 30.21 in 10.0 mi ESE 15.0 mph - N/A   Mostly Cloudy
1:53 PM 82.9 °F 85.4 °F 66.9 °F 58% 30.17 in 10.0 mi ESE 9.2 mph - N/A   Mostly Cloudy
2:53 PM 82.0 °F 85.5 °F 69.1 °F 65% 30.17 in 8.0 mi ESE 12.7 mph - 0.00 in Rain Light Rain
3:53 PM 82.0 °F 83.8 °F 64.9 °F 56% 30.17 in 10.0 mi ESE 10.4 mph - 0.00 in   Mostly Cloudy
4:53 PM 82.0 °F 83.8 °F 64.9 °F 56% 30.19 in 10.0 mi East 10.4 mph - N/A   Scattered Clouds
5:53 PM 80.1 °F 81.9 °F 64.9 °F 60% 30.19 in 10.0 mi East 5.8 mph - N/A   Clear
6:53 PM 77.0 °F - 66.0 °F 69% 30.21 in 10.0 mi East 8.1 mph - N/A   Clear
7:53 PM 75.9 °F - 66.0 °F 71% 30.22 in 10.0 mi East 9.2 mph - N/A   Clear
8:53 PM 73.0 °F - 66.0 °F 79% 30.23 in 10.0 mi East 6.9 mph - N/A   Clear
9:53 PM 73.0 °F - 68.0 °F 84% 30.24 in 10.0 mi East 9.2 mph - N/A   Partly Cloudy
10:53 PM 73.9 °F - 70.0 °F 87% 30.25 in 9.0 mi East 11.5 mph - N/A   Overcast
11:53 PM 73.9 °F - 70.0 °F 87% 30.25 in 9.0 mi East 9.2 mph - N/A   Overcast